Конкорд

США     43°11′51″N   71°31′47″W
темп.,
°C
ветер,
м/с
пор.,
м/с
влажн.,
%
обл.,
%
осадки,
мм/ч
давл.,
гПа
погр.,
м
21 октября, чт
чт2123:00+11ююз119480 0.0 101410
02:00+11зюз11949 0.0 101411
05:00+10з11945 0.0 101410
08:00+11з1190100 0.0 101517
11:00+19зюз245830 0.0 1014546
14:00+22зюз464314 0.0 10121567
17:00+18ююв2268100 0.0 101055
20:00+14ююв247996 0.0 101167
22 октября, пт
пт2223:00+11ююв239083 0.0 100963
02:00+12ю299599 0.0 1008287
05:00+14ююз3119296 0.8 1006648
08:00+12юз299551 0.8 1008350
11:00+17з576326 0.0 10091178
14:00+16з4664100 0.1 10091232
17:00+15зюз377199 0.0 1010764
20:00+11з4107848 0.0 1013493
23 октября, сб
сб2323:00+8з269091 0.0 1014128
02:00+6з119521 0.0 101427
05:00+5зсз21965 0.0 101431
08:00+6сз1387100 0.0 1015106
11:00+10зсз236265 0.0 1015724
14:00+12зсз354862 0.0 10141471
17:00+11зсз375488 0.0 1013544
20:00+6зсз277186 0.0 1015144
24 октября, вс
вс2423:00+4зсз117787 0.0 101610
02:00+4зюз11825 0.0 101610
05:00+3зсз11865 0.0 101710
08:00+5з117835 0.0 101854
11:00+12з355526 0.0 10171263
14:00+13зсз474747 0.0 10161948
17:00+10з3759100 0.0 1017541
20:00+7зсз1173100 0.0 101811
25 октября, пн
пн2523:00+6ссз2379100 0.0 101974
02:00+6сз2580100 0.0 1019201
05:00+2с2291100 0.0 102028
08:00+2ссз138726 0.0 102291
11:00+9с015086 0.0 1021710
14:00+12юв0140100 0.0 10201266
17:00+9всв1155100 0.0 101912
20:00+5в2274100 0.0 102136